Temperature
13 13 13 13 13 13 13 13 13 13 12 12 13 12 12 12 11 11 11 10 10 10 10 10 9 9 9 9 9 8 8 7 7 7 7 7 7 6 6 6 5 5 5
12 13 13 13 13 13 13 13 13 12 12 12 12 12 12 12 11 11 11 11 10 10 10 10 9 9 9 9 8 8 8 7 7 7 7 6 6 6 6 5 5 5 5
12 12 12 13 12 12 13 13 13 13 12 12 12 12 12 12 12 11 11 11 10 10 10 10 9 9 9 9 8 8 8 7 7 6 6 6 6 6 5 5 5 4 4
11 12 12 12 13 13 13 13 13 13 12 12 12 12 12 12 11 11 11 11 10 10 10 9 9 9 9 9 8 8 7 7 7 6 6 6 5 5 5 4 4 4 4
10 11 11 12 12 12 12 12 12 12 12 12 12 12 11 11 11 11 11 11 10 10 10 9 9 9 9 8 8 8 7 7 7 6 6 5 5 4 4 4 3 3 3
10 10 11 11 11 12 12 12 12 12 12 12 12 11 11 11 11 11 11 10 10 10 10 9 9 9 9 8 8 7 7 7 6 6 5 5 4 4 4 3 2 2 2
9 10 10 11 11 11 12 12 12 12 12 12 11 11 11 11 11 11 10 10 10 10 9 9 9 9 8 8 8 7 7 6 6 5 5 4 4 3 3 3 2 2 1
9 9 10 10 11 11 11 11 11 11 11 11 11 11 11 11 11 11 10 10 9 9 9 9 9 8 8 8 7 7 7 6 6 5 4 4 3 3 3 2 2 1 1
8 9 9 9 10 10 11 11 11 11 11 11 11 11 11 11 11 10 10 9 9 9 9 8 8 8 8 7 7 7 6 6 5 5 4 4 3 3 2 2 1 1 0
7 8 8 9 9 10 10 10 11 11 11 10 10 10 10 10 10 10 9 9 9 8 8 8 8 7 7 7 6 6 6 5 5 4 4 3 3 2 2 1 1 0 -1
7 7 8 8 9 9 10 10 10 10 10 10 10 10 10 10 10 10 9 9 9 8 8 8 8 7 7 6 6 6 5 5 4 4 3 3 2 2 1 1 0 -0 -1
6 7 7 8 8 9 9 9 9 9 9 9 9 9 9 9 9 9 9 9 9 8 8 7 7 7 6 6 6 5 5 4 4 3 3 2 2 2 1 1 -0 -1 -1
6 6 7 7 7 8 8 8 8 8 8 8 8 9 9 9 9 9 8 8 8 8 7 7 7 6 6 5 5 5 4 4 3 3 2 2 1 1 1 0 -0 -1 -1
5 6 6 6 7 7 7 8 8 8 8 8 8 8 8 8 8 8 8 7 7 7 7 6 6 6 5 5 4 4 3 3 3 2 2 2 1 1 0 -0 -1 -1 -2
5 5 5 6 6 6 6 7 7 7 8 8 8 8 8 8 8 8 8 7 7 6 6 6 5 5 4 4 4 3 3 3 2 2 2 1 1 0 -0 -1 -1 -2 -2
4 4 5 5 5 5 6 6 6 6 7 7 7 8 8 8 7 7 7 7 7 6 6 5 5 5 4 4 4 3 3 2 2 2 1 1 0 -0 -1 -1 -2 -2 -2
3 4 4 4 5 5 5 5 5 6 6 6 6 7 7 7 7 7 7 6 6 6 5 5 5 5 4 4 4 3 3 2 2 1 1 0 -0 -1 -1 -2 -2 -2 -3
3 3 3 4 4 4 5 5 5 5 5 5 5 6 6 6 6 6 6 5 5 5 5 5 5 4 4 4 3 3 2 2 1 1 0 0 -0 -1 -1 -2 -2 -3 -3
2 2 3 3 3 4 4 4 4 4 4 4 5 5 5 5 5 5 5 5 5 4 4 4 4 4 4 3 3 2 2 2 1 1 0 -0 -1 -1 -2 -2 -3 -3 -3
1 2 2 3 3 3 3 3 4 4 4 4 4 4 4 4 4 4 4 4 4 4 4 4 4 4 3 3 2 2 2 1 1 0 -0 -1 -1 -1 -2 -2 -3 -3 -4
1 1 2 2 2 3 3 3 3 3 3 3 3 3 3 3 3 3 3 3 4 4 4 4 3 3 3 2 2 2 2 1 0 -0 -1 -1 -1 -2 -2 -3 -3 -3 -4
0 1 1 2 2 2 2 2 3 3 3 3 3 2 3 3 3 3 3 3 3 3 3 3 3 3 2 2 2 2 1 1 0 -0 -1 -1 -2 -2 -2 -3 -3 -4 -4
-0 0 1 1 1 2 2 2 2 2 2 2 2 2 2 2 2 2 2 2 2 2 2 2 2 2 2 2 1 1 1 0 0 -0 -1 -2 -2 -2 -3 -3 -3 -4 -4
-0 -0 0 1 1 1 1 1 2 2 2 2 2 2 2 2 2 2 2 2 2 2 2 2 2 2 2 1 1 1 0 -0 -0 -1 -1 -2 -2 -2 -3 -3 -4 -4 -4
-1 -1 -0 0 0 0 1 1 1 1 1 2 1 1 1 1 1 1 1 1 2 2 2 2 1 1 1 1 1 0 -0 -1 -1 -1 -2 -2 -2 -3 -3 -4 -4 -4 -4
-1 -1 -1 -0 -0 -0 0 0 0 1 1 1 1 1 1 1 1 1 1 1 1 1 1 1 1 1 1 0 0 -0 -0 -1 -1 -2 -2 -2 -3 -3 -3 -4 -4 -4 -5
Wind_Speed
15 16 17 18 18 19 19 20 19 18 18 18 18 18 18 18 17 16 15 14 15 14 12 12 12 11 8 7 6 6 7 7 8 7 4 3 4 4 4 5 6 7 7
13 14 16 17 18 18 19 19 19 19 18 18 18 18 18 18 17 17 16 15 15 15 14 13 13 10 10 8 7 7 7 7 7 8 5 4 4 4 4 5 5 6 7
10 13 14 16 17 18 19 18 18 18 18 18 18 18 18 17 17 17 16 16 15 15 14 13 12 11 11 9 8 7 6 5 6 6 5 3 3 2 4 4 5 6 6
9 11 13 15 16 17 18 17 18 18 17 17 17 17 17 16 16 16 15 15 14 14 13 12 12 12 11 10 8 8 6 5 5 4 4 3 2 2 3 4 5 5 6
8 9 11 12 14 14 15 16 16 17 17 16 16 15 15 14 14 15 15 14 14 12 11 11 10 10 10 8 7 7 7 5 4 4 4 3 3 2 3 3 5 6 6
6 8 9 10 11 12 13 13 14 15 15 16 16 15 15 12 14 17 15 13 12 12 11 10 9 10 9 9 8 7 7 6 6 4 4 4 4 3 3 3 4 5 4
6 7 7 8 9 11 11 12 13 14 15 15 15 15 15 15 16 18 17 13 12 11 11 10 7 7 9 8 7 7 5 4 4 4 4 4 3 3 3 3 4 5 5
6 6 6 7 8 9 11 12 12 12 13 14 14 15 14 13 17 18 18 14 11 11 11 10 9 9 8 9 7 6 4 3 3 3 2 2 1 1 2 2 3 4 5
6 6 6 7 8 9 10 12 11 11 12 12 13 13 14 13 17 18 17 11 9 10 9 9 10 9 11 12 9 7 5 3 4 5 3 3 2 1 0 0 1 2 3
6 6 6 7 8 9 10 10 10 11 11 11 11 12 13 13 16 19 18 10 9 8 7 8 10 10 14 14 10 8 7 5 5 4 3 3 2 2 1 0 1 2 2
7 7 6 7 8 9 9 9 9 9 10 10 10 10 11 12 15 19 18 11 10 9 8 7 7 13 14 13 10 7 8 7 5 4 3 2 1 1 1 1 1 1 2
7 7 7 7 6 6 8 8 9 10 11 10 9 9 8 9 12 15 18 14 12 10 8 7 8 14 14 13 9 9 11 8 5 4 3 2 1 1 0 1 1 2 2
7 7 6 6 6 7 8 8 8 9 9 9 9 8 8 7 9 13 16 15 13 8 7 10 12 15 13 10 11 12 10 5 5 4 3 2 1 1 1 1 2 2 2
7 6 5 5 6 6 6 7 7 8 9 9 9 9 8 8 8 9 9 10 11 9 9 12 14 13 10 10 10 7 5 4 4 4 3 2 2 1 1 1 1 2 2
6 6 5 4 5 6 5 6 7 7 8 9 9 9 10 9 9 12 11 9 9 10 11 8 7 7 6 6 5 5 4 4 4 3 3 3 2 1 1 1 1 1 2
5 4 4 4 4 4 4 3 3 5 6 7 7 8 7 8 13 14 14 14 16 17 11 9 8 7 7 7 6 5 4 4 4 4 4 3 3 2 1 0 1 1 2
5 5 4 4 4 4 4 5 4 3 6 7 9 9 10 13 15 15 16 16 17 16 8 8 8 8 7 7 7 6 5 5 4 4 4 3 3 2 1 0 0 1 2
5 4 4 4 4 4 5 5 5 6 5 4 6 10 12 15 16 16 18 14 9 8 7 8 8 8 7 7 7 6 6 5 5 4 4 4 3 2 2 1 1 1 2
5 4 3 3 3 4 4 5 5 5 5 5 5 7 11 14 15 16 15 9 9 8 7 7 7 7 7 7 7 6 6 6 5 5 4 4 3 3 2 1 1 1 1
4 5 4 4 4 4 5 5 5 6 6 6 6 7 7 8 8 8 6 6 7 7 7 7 7 7 7 7 7 7 6 6 6 5 4 4 3 3 3 2 1 1 1
4 4 5 4 4 5 5 5 6 6 6 6 5 7 9 7 7 8 6 6 6 7 7 7 7 7 7 7 7 7 7 6 6 5 4 4 3 3 2 2 1 1 1
4 4 4 4 4 4 5 5 6 6 6 7 6 6 8 5 5 6 5 5 5 5 6 7 7 6 7 7 8 8 7 7 6 6 5 4 4 3 3 2 1 1 0
4 4 3 3 4 5 5 5 6 6 6 6 6 6 5 5 5 5 5 5 6 5 6 6 7 6 6 7 7 7 7 7 7 7 6 6 4 4 3 2 2 1 0
4 4 4 4 4 5 5 6 6 6 6 6 6 6 5 5 5 6 6 6 6 6 6 6 6 8 10 8 7 7 7 8 8 7 8 7 5 4 3 3 2 2 1
4 4 4 4 4 5 5 6 6 6 6 6 6 6 5 5 5 5 5 6 6 6 7 7 7 9 10 10 9 9 11 13 11 9 7 6 6 5 4 3 3 2 1
4 4 4 4 4 5 5 6 6 6 6 6 6 6 6 6 6 6 6 6 6 6 7 7 9 10 11 10 12 14 15 14 13 12 9 7 6 5 5 4 4 3 3
Wind_Direction
214 210 210 210 209 208 207 208 207 206 203 203 202 202 202 203 202 204 206 206 209 210 208 213 216 216 215 215 217 221 226 231 251 265 264 266 266 276 286 292 300 298 298
217 213 212 210 208 208 209 209 207 207 205 203 202 202 202 202 201 203 205 206 208 210 209 211 215 212 215 215 214 219 223 225 239 259 264 263 266 281 293 297 302 302 303
224 218 215 210 208 209 210 209 206 205 204 202 202 202 201 201 201 203 204 206 208 211 209 209 212 210 214 215 214 217 220 220 228 246 262 269 275 292 297 297 302 305 307
230 221 219 214 211 210 209 207 205 202 201 201 202 203 201 200 200 200 201 204 206 209 209 209 209 209 213 213 212 214 210 208 217 232 251 265 277 296 298 303 303 309 307
237 226 224 219 213 211 210 207 204 202 200 198 199 201 200 198 199 197 198 200 201 203 205 207 207 205 206 204 200 201 196 199 202 219 237 254 262 286 293 300 299 307 302
251 233 228 221 213 209 208 206 202 201 198 195 196 198 198 199 190 188 191 194 196 197 198 201 201 198 194 190 186 185 186 194 201 209 227 242 256 266 281 291 299 311 302
259 243 234 223 214 210 206 203 200 199 195 196 196 196 199 197 183 182 183 189 191 194 195 194 190 185 183 185 178 170 175 180 194 205 219 233 247 253 261 275 289 299 295
261 252 240 225 216 210 205 203 201 198 196 195 196 196 197 194 180 180 178 188 191 193 193 190 185 183 181 173 165 163 169 177 188 203 212 220 227 234 251 269 285 296 298
261 255 244 228 217 209 205 204 201 196 195 195 194 193 194 191 178 176 173 188 189 189 187 184 181 182 170 161 160 159 153 138 112 123 121 114 110 110 100 76 336 323 306
275 265 250 230 218 211 207 204 199 196 194 190 191 191 192 190 178 174 173 182 181 179 178 178 179 177 167 164 171 168 168 166 148 139 131 123 113 101 105 321 270 295 311
284 276 255 232 222 214 207 202 196 192 189 187 184 187 189 186 176 174 175 181 178 175 175 177 177 170 167 167 170 174 168 157 153 149 143 135 115 98 49 0 334 280 279
282 273 252 233 221 212 202 198 192 186 185 184 179 179 184 180 177 177 177 177 170 173 175 173 168 162 162 161 163 154 146 143 142 144 148 156 159 152 5 335 336 318 296
282 269 253 235 217 206 199 193 187 185 184 181 180 180 180 177 173 169 171 170 164 163 161 157 153 152 151 154 153 149 148 151 152 157 170 177 165 143 88 17 2 359 336
278 266 247 226 212 203 196 191 188 188 184 180 181 179 175 174 171 166 164 160 152 146 141 143 141 140 141 143 147 151 158 161 163 167 162 144 129 122 104 18 335 338 329
278 263 244 223 210 204 197 195 195 198 191 185 185 179 176 182 176 163 162 163 161 152 142 138 142 145 151 152 150 148 150 151 152 148 146 139 137 127 89 26 346 329 321
278 267 243 218 206 198 188 177 166 179 167 171 173 172 175 166 158 159 156 154 150 149 146 155 160 162 165 164 164 160 159 163 163 157 153 152 157 158 141 35 345 318 316
269 267 255 221 201 191 187 179 165 125 130 146 153 157 159 157 157 158 154 151 154 152 154 164 167 169 168 168 167 168 171 167 160 158 156 156 155 154 147 158 308 320 323
272 266 255 228 204 191 186 181 172 167 161 152 146 149 152 154 156 154 149 145 156 164 167 168 170 169 167 168 168 166 162 158 157 159 158 157 161 164 167 186 230 299 312
269 260 248 223 205 189 179 173 167 164 162 156 148 146 146 148 151 154 154 161 169 173 171 171 168 166 164 164 164 164 163 162 161 162 164 165 169 169 176 191 220 274 310
263 262 245 216 197 184 176 172 168 164 160 161 163 159 152 151 158 162 166 165 167 170 169 167 164 161 161 161 160 160 159 158 160 163 165 169 170 168 170 176 195 240 282
259 255 234 211 196 184 176 172 170 167 165 165 167 167 165 165 168 170 171 170 169 169 167 163 160 161 162 160 160 161 160 160 163 166 167 167 167 163 162 166 180 216 283
252 244 225 211 195 182 173 169 167 165 162 158 155 154 153 156 163 166 164 161 161 160 160 159 160 165 167 166 165 164 165 163 165 166 165 163 164 159 152 153 161 172 213
245 230 217 202 192 177 171 169 167 164 161 158 157 158 161 162 161 160 158 157 156 155 153 154 157 161 161 158 160 164 168 170 170 166 164 162 161 158 156 157 158 159 164
227 218 208 193 188 182 174 169 165 162 160 158 160 162 162 162 158 156 157 155 153 153 153 154 157 161 156 152 150 151 151 150 151 157 159 159 158 156 152 152 155 151 155
216 209 203 193 188 182 172 167 164 162 162 160 161 159 158 157 155 156 156 153 153 155 154 152 152 155 156 153 151 149 149 147 146 147 149 151 149 148 147 147 147 137 122
212 204 198 191 187 182 174 169 168 166 164 163 162 160 159 159 159 159 158 155 154 154 152 152 153 153 152 151 151 149 149 150 149 147 146 145 145 145 145 144 142 138 130
Height
1404 1407 1411 1416 1420 1425 1430 1435 1439 1444 1448 1452 1456 1460 1464 1467 1471 1474 1477 1480 1483 1485 1488 1490 1492 1494 1495 1496 1497 1497 1497 1497 1496 1495 1494 1492 1490 1488 1486 1484 1481 1477 1474
1398 1402 1405 1410 1414 1418 1423 1428 1433 1437 1441 1445 1449 1453 1457 1461 1464 1468 1471 1474 1477 1479 1482 1484 1486 1488 1489 1491 1491 1492 1492 1492 1491 1490 1489 1487 1486 1484 1482 1479 1477 1473 1470
1393 1396 1400 1404 1408 1412 1416 1421 1426 1430 1434 1438 1443 1446 1450 1454 1458 1461 1465 1468 1470 1473 1476 1478 1480 1482 1484 1485 1486 1487 1487 1487 1486 1485 1484 1483 1481 1480 1477 1475 1473 1469 1466
1388 1390 1393 1397 1401 1405 1409 1414 1419 1423 1427 1431 1435 1439 1443 1447 1451 1455 1458 1461 1464 1467 1470 1472 1475 1476 1478 1479 1480 1481 1481 1481 1481 1481 1480 1478 1477 1475 1473 1471 1468 1465 1462
1383 1385 1387 1391 1395 1399 1403 1407 1412 1416 1420 1424 1429 1433 1437 1441 1444 1448 1452 1455 1458 1461 1464 1466 1468 1471 1472 1474 1475 1476 1476 1476 1476 1476 1475 1474 1472 1471 1469 1466 1464 1461 1457
1378 1380 1382 1386 1389 1393 1397 1401 1405 1409 1413 1418 1422 1426 1430 1433 1438 1442 1446 1449 1453 1455 1458 1460 1463 1465 1467 1468 1470 1471 1471 1471 1471 1471 1470 1469 1468 1467 1465 1463 1460 1457 1453
1374 1376 1378 1380 1383 1386 1391 1395 1399 1402 1406 1410 1415 1419 1423 1427 1431 1436 1440 1444 1447 1449 1452 1454 1457 1459 1461 1463 1464 1465 1466 1466 1467 1467 1466 1465 1464 1463 1461 1459 1457 1454 1451
1370 1372 1373 1375 1378 1381 1385 1388 1392 1396 1400 1404 1408 1413 1417 1421 1425 1430 1434 1438 1441 1444 1446 1449 1451 1453 1455 1457 1459 1460 1461 1461 1462 1462 1462 1461 1461 1459 1458 1456 1454 1451 1448
1366 1367 1368 1370 1373 1376 1379 1383 1387 1391 1394 1398 1403 1407 1411 1415 1420 1424 1428 1432 1435 1438 1441 1444 1446 1448 1450 1453 1454 1455 1456 1457 1457 1458 1458 1457 1457 1455 1454 1453 1450 1447 1444
1362 1363 1365 1366 1369 1371 1374 1377 1381 1385 1389 1393 1397 1401 1405 1409 1414 1418 1422 1426 1429 1433 1436 1438 1441 1443 1446 1448 1450 1451 1452 1452 1453 1453 1454 1453 1453 1451 1450 1449 1447 1444 1442
1359 1359 1361 1362 1364 1367 1370 1373 1376 1380 1384 1388 1392 1396 1400 1404 1408 1412 1416 1420 1423 1427 1430 1433 1436 1439 1441 1443 1446 1447 1448 1449 1450 1450 1450 1449 1449 1448 1446 1445 1443 1442 1440
1355 1355 1357 1358 1360 1363 1365 1368 1372 1375 1379 1383 1387 1391 1395 1399 1403 1407 1411 1415 1419 1422 1425 1428 1431 1434 1437 1440 1442 1443 1444 1446 1446 1446 1446 1446 1445 1444 1443 1442 1441 1439 1437
1351 1351 1352 1354 1356 1358 1361 1363 1366 1370 1373 1377 1381 1385 1389 1394 1398 1402 1407 1411 1415 1418 1421 1425 1428 1431 1433 1436 1438 1439 1441 1442 1442 1442 1442 1442 1442 1441 1440 1439 1438 1436 1434
1347 1347 1349 1350 1351 1354 1356 1359 1361 1364 1368 1372 1376 1380 1384 1388 1392 1396 1401 1406 1410 1414 1417 1421 1424 1427 1430 1432 1434 1436 1437 1438 1438 1439 1439 1439 1439 1438 1437 1436 1435 1433 1432
1343 1344 1345 1346 1348 1349 1352 1354 1357 1360 1363 1367 1371 1374 1378 1382 1387 1391 1395 1400 1404 1408 1412 1416 1420 1423 1425 1428 1430 1431 1433 1434 1435 1436 1436 1436 1436 1435 1435 1434 1433 1431 1429
1340 1340 1342 1343 1344 1346 1348 1351 1354 1357 1361 1364 1368 1371 1375 1379 1384 1388 1393 1397 1401 1405 1409 1412 1415 1418 1421 1423 1426 1427 1429 1431 1432 1432 1433 1433 1433 1433 1432 1431 1431 1429 1428
1336 1337 1338 1339 1340 1342 1345 1347 1350 1354 1357 1361 1364 1368 1372 1376 1381 1385 1389 1393 1397 1401 1404 1407 1410 1413 1416 1419 1422 1424 1426 1427 1428 1429 1430 1430 1430 1430 1429 1428 1428 1427 1425
1332 1333 1334 1336 1337 1339 1342 1344 1347 1350 1353 1357 1362 1365 1369 1373 1377 1381 1385 1389 1392 1396 1400 1403 1406 1409 1413 1415 1418 1420 1422 1424 1425 1426 1427 1427 1427 1427 1427 1426 1425 1425 1423
1329 1330 1331 1333 1334 1336 1339 1342 1344 1347 1350 1354 1358 1362 1366 1370 1374 1378 1381 1385 1388 1392 1396 1399 1403 1406 1409 1412 1414 1416 1418 1420 1421 1422 1423 1424 1424 1424 1424 1423 1423 1423 1421
1325 1326 1327 1329 1331 1333 1336 1338 1341 1344 1347 1350 1354 1358 1362 1366 1370 1373 1377 1381 1385 1388 1392 1396 1399 1402 1405 1408 1411 1413 1414 1416 1418 1419 1420 1421 1421 1421 1421 1421 1421 1420 1420
1321 1322 1324 1325 1327 1330 1332 1335 1338 1341 1344 1348 1351 1355 1359 1362 1366 1370 1374 1377 1381 1385 1389 1393 1396 1399 1402 1404 1407 1409 1411 1413 1415 1416 1417 1418 1419 1419 1419 1419 1419 1419 1418
1318 1318 1320 1322 1324 1326 1328 1331 1335 1338 1341 1345 1348 1353 1357 1360 1364 1367 1371 1375 1379 1383 1386 1390 1393 1396 1399 1401 1404 1406 1408 1410 1411 1413 1414 1415 1416 1417 1417 1417 1417 1417 1416
1314 1315 1316 1318 1321 1323 1325 1328 1331 1335 1338 1342 1345 1350 1354 1357 1361 1364 1368 1372 1376 1380 1383 1387 1390 1393 1396 1398 1401 1403 1405 1407 1409 1410 1412 1412 1413 1414 1415 1415 1415 1415 1415
1310 1311 1313 1315 1317 1320 1322 1325 1328 1332 1335 1339 1343 1347 1351 1355 1358 1362 1366 1369 1373 1376 1380 1384 1387 1390 1393 1396 1398 1400 1402 1404 1406 1408 1409 1410 1411 1412 1413 1414 1414 1414 1414
1307 1308 1310 1312 1315 1317 1319 1322 1326 1329 1333 1336 1340 1344 1348 1352 1356 1359 1363 1366 1370 1373 1377 1380 1383 1387 1390 1393 1395 1397 1400 1402 1404 1405 1407 1408 1409 1410 1411 1412 1413 1413 1413
1303 1305 1307 1309 1312 1314 1317 1319 1323 1326 1329 1333 1337 1341 1345 1349 1353 1356 1359 1363 1366 1370 1373 1377 1380 1384 1387 1390 1393 1395 1397 1399 1401 1403 1405 1406 1407 1408 1410 1411 1412 1412 1412